Location: Newark
(55.7083°N, 13.1992°E)
Time: 21:13:17
(UTC+00:00)

Vanguard 2 Rocket - All Passes

Search period start: 17 February 2020 00:00
Search period end: 27 February 2020 00:00
Orbit: 554 x 3326 km, 32.9° (Epoch: 16 February)

Date Brightness Start Highest point End Pass type
(mag) Time Alt. Az. Time Alt. Az. Time Alt. Az.
17 Feb - 18:58:50 10° S 19:02:17 11° SSE 19:05:22 10° SE visible
17 Feb - 21:08:28 10° SSW 21:15:09 16° S 21:20:16 10° SE visible
17 Feb - 23:23:50 10° SW 23:27:10 12° SSW 23:29:59 10° S night (unlit)
18 Feb - 20:07:43 10° SSW 20:15:29 17° S 20:21:26 10° SE visible
18 Feb - 22:21:54 10° SW 22:27:59 16° SSW 22:32:38 10° SSE visible
19 Feb - 19:07:26 10° SSW 19:15:37 16° SSE 19:22:04 10° SE visible
19 Feb - 21:20:25 10° SW 21:28:33 19° S 21:34:30 10° SE visible
19 Feb - 23:37:28 10° SW 23:40:23 12° SSW 23:42:56 10° S night (unlit)
20 Feb - 18:07:52 10° S 18:15:34 15° SSE 18:21:59 10° SE visible
20 Feb - 20:19:10 10° SW 20:28:51 21° S 20:35:55 10° SE visible
20 Feb - 22:34:49 10° SW 22:41:16 17° SSW 22:46:09 10° SSE visible
21 Feb - 17:09:41 10° SSE 17:15:27 12° SSE 17:20:35 10° SE visible
21 Feb - 19:18:13 10° SSW 19:28:55 21° S 19:36:53 10° SE visible
21 Feb - 21:32:55 10° SW 21:41:52 21° SSW 21:48:18 10° SSE visible
22 Feb - 18:17:45 10° SSW 18:28:46 20° SSE 18:37:20 10° ESE visible
22 Feb - 20:31:16 10° SW 20:42:09 23° S 20:49:53 10° SE visible
22 Feb - 22:48:12 10° WSW 22:54:24 16° SSW 22:59:13 10° S visible
23 Feb - 17:18:01 10° S 17:28:30 18° SSE 17:37:09 10° ESE visible
23 Feb - 19:29:52 10° SW 19:42:10 25° S 19:51:03 10° SE visible
23 Feb - 21:45:49 10° WSW 21:55:02 21° SSW 22:01:43 10° SSE visible
24 Feb - 16:19:27 10° S 16:28:11 15° SSE 16:35:55 10° ESE daylight
24 Feb - 18:28:53 10° SSW 18:41:56 25° S 18:51:47 10° ESE visible
24 Feb - 20:43:48 10° WSW 20:55:22 25° SSW 21:03:32 10° SE visible
24 Feb - 23:02:12 10° WSW 23:07:21 14° SW 23:11:35 10° S visible
25 Feb - 15:23:32 10° SSE 15:27:57 11° SE 15:32:10 10° SE daylight
25 Feb - 17:28:26 10° SSW 17:41:31 23° SSE 17:52:00 10° ESE visible
25 Feb - 19:42:05 10° SW 19:55:21 27° S 20:04:52 10° SE visible
25 Feb - 21:59:05 10° WSW 22:08:04 19° SSW 22:14:44 10° SSE visible
26 Feb - 16:28:46 10° SSW 16:41:03 20° SSE 16:51:33 10° ESE daylight
26 Feb - 18:40:42 10° SW 18:55:03 28° S 19:05:46 10° SE visible
26 Feb - 20:56:42 10° WSW 21:08:26 24° SSW 21:16:51 10° SSE visible
26 Feb - 23:17:40 10° SW 23:20:06 11° SW 23:22:20 10° SSW visible
